ATLAS 5 CENTAUR R/B, 40209

Orbit data source: Space-Track

ATLAS 5 CENTAUR R/B, 40209 is space debris in HEO originally from a launch on Wed, 17 Sep 2014 UTC launched from the Air Force Eastern Test Range (AFETR). Debris objects in space refer to the collection of defunct objects orbiting the Earth. Examples of debris include non-operational satellites, rocket bodies, and fragments generated from explosions, collisions, or faulty payload assembly.

Loading next visibility...
Identifier
40209, 2014-055B
Orbit
HEO
Country
Flag of USUS
Related business
Flag of USUnited Launch Alliance/Lockheed Martin (US)
Manufacturer
ULA Decatur
Mission
Spacecraft
Bus & Motor
CENTAUR SEC, RL10-4A-2
Mass
~2,020 kg wet, 2,020 kg dry
Launch date (UTC)
2014-09-17 (11 years ago)
Launch vehicle
Unknown
Launch site
Air Force Eastern Test Range (AFETR)
Object type
Payload
Rocket body
Debris
Shape & HBR
Cyl + 1 Nozzle, 5.8 m
Radar Cross Section
32.260 m², Medium (>0.1 m² and < 1m²)

Expand to show TLE details & history
Last TLE update: 2 days ago

TLE from 2 days ago
0 ATLAS 5 CENTAUR R/B
1 40209U 14055B   25346.75956522 -.00000018  00000-0  00000-0 0  9991
2 40209  19.8107 160.0146 4855971 135.9253 275.1334  1.85508448379072
Epoch: 2025-12-12T18:13Z
TLE epoch observation values (Epoch: 2025-12-12T18:13:46.435Z)
Latitude
-0°
Longitude
164.90083°
Altitude
26,420.931 km
Speed
3.172 km/s
True Right ascension
10h 40m 09s
True Declination
0° 00' 00"
Sunlit
Object was in daylight at epoch
Visualization orbit readout
Latitude
Unknown
Longitude
Unknown
Altitude
Unknown
Speed
Unknown
Apparent Right ascension
Unknown
Apparent Declination
Unknown
Sunlit
N/A
Visualization observer readout
Local Sidereal Time
18:38:34
Azimuth
Unknown
Elevation
Unknown
Doppler factor
Unknown
Orbital elements
Apogee altitude
35,189.719 km
Perigee altitude
8,015.15 km
Semi-major axis
27,980.572 km
Eccentricity
0.4856
Inclination
19.8107°
RAAN
160.0146°
Arg. of periapsis
135.9253°
True anomaly
224.1398°
Mean anomaly
275.1334°
Eccentric anomaly
249.13524°
Mean motion
0.46372 °/min
Orbital period
776.33 mins
BSTAR
0
Loading maneuver chart data...
Computing Atmospheric mass density...

Documentation

Showing up to 5 results
|